Change the Weather History Date:

Thursday, January 15, 2009

  Actual Average Record
Temperature  
Mean Temperature 2 °F -  
Max Temperature 12 °F 35 °F 64 °F (2006)
Min Temperature -7 °F 16 °F -7 °F (2009)
Degree Days  
Heating Degree Days 62    
Moisture  
Dew Point -13 °F    
Average Humidity 54    
Maximum Humidity 78    
Minimum Humidity 29    
Precipitation  
Precipitation 0.00 in - - ()
Sea Level Pressure  
Sea Level Pressure 30.74 in    
Wind  
Wind Speed 6 mph (NNW)    
Max Wind Speed 14 mph    
Max Gust Speed -    
Visibility 10 miles    
Events      
Averages and records for this station are not official NWS values.
T = Trace of Precipitation, MM = Missing Value Source: NWS Daily Summary

Daily Weather History Graph

Daily Weather History Graph

Search for Another Location

Airport or City:

Trip Planner

Search our weather history database for the weather conditions in past years. The results will help you decide how hot, cold, wet, or windy it might be!

Date:

Astronomy

Jan. 15, 2009 Rise Set
Actual Time 7:47 AM CST 5:25 PM CST
Civil Twilight 7:17 AM CST 5:55 PM CST
Nautical Twilight 6:44 AM CST 6:29 PM CST
Astronomical Twilight 6:11 AM CST 7:01 PM CST
Moon 11:10 PM CST (1/15) 10:19 AM CST (1/15)
Length of Visible Light 10h 37m
Length of Day
9h 38m
Waning Gibbous, 74% of the Moon is Illuminated
Jan 15
Waning Gibbous
Jan 17
Last Quarter
Jan 26
New
Feb 2
First Quarter
Feb 9
Full

Hourly Weather History & Observations

Time (CST) Temp. Windchill Dew Point Humidity Pressure Visibility Wind Dir Wind Speed Gust Speed Precip Events Conditions
12:10 AM -0.4 °F -14.7 °F -9.4 °F 66% 30.71 in 10.0 mi North 8.1 mph - N/A   Clear
12:30 AM -0.4 °F -16.7 °F -9.4 °F 66% 30.71 in 10.0 mi North 10.4 mph - N/A   Clear
12:50 AM -2.2 °F -16.8 °F -9.4 °F 71% 30.70 in 10.0 mi North 8.1 mph - N/A   Clear
1:10 AM -2.2 °F -18.0 °F -9.4 °F 71% 30.71 in 10.0 mi North 9.2 mph - N/A   Clear
1:30 AM -4.0 °F -19.0 °F -9.4 °F 78% 30.71 in 10.0 mi North 8.1 mph - N/A   Clear
1:50 AM -4.0 °F -20.2 °F -9.4 °F 78% 30.71 in 10.0 mi North 9.2 mph - N/A   Clear
2:10 AM -4.0 °F -20.2 °F -9.4 °F 78% 30.71 in 10.0 mi North 9.2 mph - N/A   Clear
2:30 AM -4.0 °F -21.2 °F -9.4 °F 78% 30.71 in 10.0 mi North 10.4 mph - N/A   Clear
2:50 AM -4.0 °F -23.7 °F -13.0 °F 65% 30.72 in 10.0 mi North 13.8 mph - N/A   Clear
3:10 AM -4.0 °F -20.2 °F -13.0 °F 65% 30.72 in 10.0 mi North 9.2 mph - N/A   Clear
3:30 AM -4.0 °F -21.2 °F -13.0 °F 65% 30.73 in 10.0 mi North 10.4 mph - N/A   Clear
3:50 AM -4.0 °F -21.2 °F -13.0 °F 65% 30.72 in 10.0 mi North 10.4 mph - N/A   Clear
4:10 AM -4.0 °F -20.2 °F -13.0 °F 65% 30.71 in 10.0 mi North 9.2 mph - N/A   Clear
4:30 AM -4.0 °F -21.2 °F -13.0 °F 65% 30.71 in 10.0 mi North 10.4 mph - N/A   Clear
4:50 AM -4.0 °F -16.3 °F -13.0 °F 65% 30.72 in 10.0 mi North 5.8 mph - N/A   Clear
5:10 AM -4.0 °F -14.6 °F -13.0 °F 65% 30.73 in 10.0 mi North 4.6 mph - N/A   Clear
5:30 AM -5.8 °F -18.4 °F -14.8 °F 65% 30.74 in 10.0 mi NNW 5.8 mph - N/A   Clear
5:50 AM -7.6 °F -18.8 °F -14.8 °F 71% 30.75 in 10.0 mi NNW 4.6 mph - N/A   Clear
6:10 AM -7.6 °F -16.5 °F -14.8 °F 71% 30.75 in 10.0 mi NNW 3.5 mph - N/A   Clear
6:30 AM -5.8 °F -14.5 °F -14.8 °F 65% 30.75 in 10.0 mi NW 3.5 mph - N/A   Clear
6:50 AM -5.8 °F - -14.8 °F 65% 30.76 in 10.0 mi Calm Calm - N/A   Clear
7:10 AM -5.8 °F -14.5 °F -14.8 °F 65% 30.77 in 10.0 mi West 3.5 mph - N/A   Clear
7:30 AM -7.6 °F -18.8 °F -14.8 °F 71% 30.76 in 10.0 mi NW 4.6 mph - N/A   Clear
7:50 AM -7.6 °F -16.5 °F -14.8 °F 71% 30.76 in 10.0 mi NW 3.5 mph - N/A   Clear
8:10 AM -5.8 °F -16.7 °F -14.8 °F 65% 30.77 in 10.0 mi NW 4.6 mph - N/A   Clear
8:30 AM -4.0 °F -12.4 °F -13.0 °F 65% 30.79 in 10.0 mi West 3.5 mph - N/A   Clear
8:50 AM -4.0 °F -12.4 °F -11.2 °F 71% 30.79 in 10.0 mi West 3.5 mph - N/A   Clear
9:10 AM -2.2 °F -14.2 °F -13.0 °F 60% 30.79 in 10.0 mi NW 5.8 mph - N/A   Clear
9:30 AM -0.4 °F -12.0 °F -13.0 °F 55% 30.80 in 10.0 mi NNW 5.8 mph - N/A   Clear
9:50 AM -0.4 °F -12.0 °F -9.4 °F 66% 30.81 in 10.0 mi NNW 5.8 mph - N/A   Clear
10:10 AM -0.4 °F -14.7 °F -9.4 °F 66% 30.81 in 10.0 mi NW 8.1 mph - N/A   Clear
10:30 AM 1.4 °F -11.3 °F -11.2 °F 56% 30.82 in 10.0 mi North 6.9 mph - N/A   Clear
10:50 AM 1.4 °F -8.3 °F -11.2 °F 56% 30.81 in 10.0 mi NW 4.6 mph - N/A   Clear
11:10 AM 3.2 °F -10.3 °F -11.2 °F 51% 30.80 in 10.0 mi North 8.1 mph - N/A   Clear
11:30 AM 3.2 °F - -11.2 °F 51% 30.80 in 10.0 mi Calm Calm - N/A   Clear
11:50 AM 3.2 °F -10.3 °F -13.0 °F 47% 30.79 in 10.0 mi NNW 8.1 mph - N/A   Clear
12:10 PM 5.0 °F -4.1 °F -13.0 °F 43% 30.78 in 10.0 mi WNW 4.6 mph - N/A   Clear
12:30 PM 8.6 °F 2.0 °F -11.2 °F 40% 30.77 in 10.0 mi NNW 3.5 mph - N/A   Clear
12:50 PM 8.6 °F - -13.0 °F 37% 30.76 in 10.0 mi Calm Calm - N/A   Clear
1:10 PM 8.6 °F - -13.0 °F 37% 30.76 in 10.0 mi Calm Calm - N/A   Clear
1:30 PM 8.6 °F -2.6 °F -13.0 °F 37% 30.75 in 10.0 mi West 6.9 mph - N/A   Clear
1:50 PM 10.4 °F - -13.0 °F 34% 30.74 in 10.0 mi Calm Calm - N/A   Clear
2:10 PM 10.4 °F -0.4 °F -13.0 °F 34% 30.73 in 10.0 mi WSW 6.9 mph - N/A   Clear
2:30 PM 10.4 °F 4.0 °F -13.0 °F 34% 30.73 in 10.0 mi NW 3.5 mph - N/A   Clear
3:10 PM 12.2 °F 4.3 °F -13.0 °F 32% 30.72 in 10.0 mi West 4.6 mph - N/A   Clear
3:30 PM 10.4 °F 4.0 °F -13.0 °F 34% 30.72 in 10.0 mi NNW 3.5 mph - N/A   Clear
3:50 PM 12.2 °F 6.1 °F -13.0 °F 32% 30.72 in 10.0 mi North 3.5 mph - N/A   Clear
4:10 PM 12.2 °F - -13.0 °F 32% 30.71 in 10.0 mi Calm Calm - N/A   Clear
4:30 PM 12.2 °F - -14.8 °F 29% 30.71 in 10.0 mi Calm Calm - N/A   Clear
4:50 PM 10.4 °F - -14.8 °F 31% 30.71 in 10.0 mi Calm Calm - N/A   Clear
5:10 PM 10.4 °F - -14.8 °F 31% 30.71 in 10.0 mi Calm Calm - N/A   Clear
5:30 PM 10.4 °F - -14.8 °F 31% 30.70 in 10.0 mi Calm Calm - N/A   Clear
5:50 PM 8.6 °F - -14.8 °F 34% 30.70 in 10.0 mi Calm Calm - N/A   Clear
6:10 PM 8.6 °F - -13.0 °F 37% 30.69 in 10.0 mi Calm Calm - N/A   Clear
6:30 PM 8.6 °F 2.0 °F -13.0 °F 37% 30.69 in 10.0 mi SE 3.5 mph - N/A   Clear
6:50 PM 8.6 °F - -13.0 °F 37% 30.70 in 10.0 mi Calm Calm - N/A   Clear
7:10 PM 5.0 °F -4.1 °F -13.0 °F 43% 30.69 in 10.0 mi SE 4.6 mph - N/A   Clear
7:30 PM 6.8 °F -0.1 °F -13.0 °F 40% 30.69 in 10.0 mi ESE 3.5 mph - N/A   Clear
7:50 PM 5.0 °F -4.1 °F -11.2 °F 47% 30.69 in 10.0 mi SE 4.6 mph - N/A   Clear
8:10 PM 5.0 °F -5.6 °F -11.2 °F 47% 30.68 in 10.0 mi SSE 5.8 mph - N/A   Clear
8:30 PM 5.0 °F -4.1 °F -11.2 °F 47% 30.69 in 10.0 mi SE 4.6 mph - N/A   Clear
8:50 PM 5.0 °F -5.6 °F -9.4 °F 52% 30.68 in 10.0 mi SE 5.8 mph - N/A   Clear
9:10 PM 5.0 °F -6.9 °F -9.4 °F 52% 30.68 in 10.0 mi SE 6.9 mph - N/A   Clear
9:30 PM 5.0 °F -6.9 °F -9.4 °F 52% 30.67 in 10.0 mi SE 6.9 mph - N/A   Clear
9:50 PM 5.0 °F -8.1 °F -9.4 °F 52% 30.67 in 10.0 mi SSE 8.1 mph - N/A   Clear
10:10 PM 5.0 °F -8.1 °F -9.4 °F 52% 30.66 in 10.0 mi SSE 8.1 mph - N/A   Clear
10:30 PM 5.0 °F -8.1 °F -7.6 °F 56% 30.66 in 10.0 mi SSE 8.1 mph - N/A   Clear
10:50 PM 5.0 °F -8.1 °F -7.6 °F 56% 30.65 in 10.0 mi SSE 8.1 mph - N/A   Scattered Clouds
11:10 PM 6.8 °F -6.9 °F -7.6 °F 52% 30.65 in 10.0 mi SSE 9.2 mph - N/A   Mostly Cloudy
11:30 PM 6.8 °F -6.9 °F -7.6 °F 52% 30.64 in 10.0 mi SSE 9.2 mph - N/A   Overcast
11:50 PM 8.6 °F -3.7 °F -7.6 °F 48% 30.63 in 10.0 mi SSE 8.1 mph - N/A   Overcast